Location: Newark
(51.2625°N, 13.3939°E)
Time: 23:32:56
(UTC+00:00)

Transit 2A Rocket - Pass Details

Date: 25 January 2021
Orbit: 594 x 909 km, 66.7° (Epoch: 03 March)

Event Time Altitude Azimuth Distance (km) Brightness Sun altitude
Rises 18:53:23 0° 322° (NW) 2,960 8.6 -29.2°
Reaches altitude 10° 18:55:45 10° 325° (NW) 2,011 7.6 -29.6°
Enters shadow 18:57:41 25° 331° (NNW) 1,269 6.4 -29.9°
